Location: Unspecified
(36.9193°S, 174.7252°E)
Time: 17:56:43
(UTC+13:00)

Envisat - Pass Details

Date: 28 September 2021
Orbit: 764 x 766 km, 98.2° (Epoch: 18 October)

Event Time Altitude Azimuth Distance (km) Brightness Sun altitude
Rises 05:26:36 0° 22° (NNE) 3,220 6.3 -19.5°
Reaches altitude 10° 05:28:54 10° 24° (NNE) 2,302 5.5 -19.1°
Maximum altitude 05:33:56 66° 106° (ESE) 844 3.4 -18.1°
Drops below altitude 10° 05:39:02 10° 186° (S) 2,333 5.6 -17.2°
Sets 05:41:22 0° 189° (S) 3,268 6.4 -16.7°
